Regional Weather Roundup
Issued by NWS Charleston, SC

Home | Current Version | Previous Version | Text Only | Print | Product List | Glossary On
Versions: 1 2 3 4 5 6 7 8 9 10 11 12 13 14 15 16 17 18 19 20 21 22 23 24 25 26 27 28 29 30 31 32 33 34 35 36 37 38 39 40 41 42 43 44 45 46 47 48 49 50
000
ASUS42 KCHS 301028
RWRCHS

REGIONAL WEATHER ROUNDUP
NATIONAL WEATHER SERVICE CHARLESTON SC
600 AM EDT FRI SEP 30 2016

NOTE: "FAIR" INDICATES FEW OR NO CLOUDS BELOW 12,000 FEET WITH NO
SIGNIFICANT WEATHER AND/OR OBSTRUCTIONS TO VISIBILITY.

NOT ALL STATIONS ARE QUALITY CONTROLLED. USE DATA WITH CAUTION...
ESPECIALLY DEWPOINT OBSERVATIONS.

SCZ027-030-031-034>040-042>050-301100-
...SOUTHEAST SOUTH CAROLINA...

CITY           SKY/WX    TMP DP  RH WIND       PRES   REMARKS
N CHARLESTON   PTCLDY    73  70  90 NE3       29.94R
WATERFRONT PRK   N/A     76  72  87 CALM      29.92R
MOUNT PLEASANT PTSUNNY   72  72 100 CALM      29.95R FOG
JOHNS ISLAND   PTSUNNY   73  72  94 CALM      29.95R
PINOPOLIS        N/A     73  72  94 CALM      29.86S
MONCKS CORNER  CLOUDY    68  66  94 CALM      29.96R THUNDER FOG
SUMMERVILLE    NOT AVBL
BEAUFORT MCAS  MOCLDY    72  69  90 NW6       29.96R
BEAUFORT ARPT  CLOUDY    72  70  94 NW6       29.95R
HILTON HEAD IS NOT AVBL
WALTERBORO     MOSUNNY   70  70 100 CALM      29.97R
ALLENDALE      FAIR      63  55  77 CALM      29.96R

...SOUTHERN MIDLANDS AND PEE DEE...

CITY           SKY/WX    TMP DP  RH WIND       PRES   REMARKS
GEORGETOWN     FAIR      73  70  88 S5        29.95S THUNDER
KINGSTREE        N/A     68  68 100 CALM      29.96R
ORANGEBURG     PTCLDY    65  56  72 NW3       29.96R
BARNWELL       NOT AVBL
AIKEN          FAIR      57  50  77 CALM      30.01R
MANNING        PTSUNNY   68  68 100 CALM      29.96R
COLUMBIA       CLEAR     63  54  72 S3        29.95S
SUMTER         PTCLDY    67  62  84 W3        29.93R
FLORENCE       MOCLDY    72  70  93 SE5       29.96R FOG
MYRTLE BEACH   PTCLDY    79  66  65 SW5       29.97R
N MYRTLE BEACH CLOUDY    78  74  87 SW7       29.95R

$$

GAZ063-065-086>088-099>101-113>116-118-119-134>141-150-301100-
...SOUTHEAST GEORGIA...

CITY           SKY/WX    TMP DP  RH WIND       PRES   REMARKS
SAVANNAH ARPT  PTCLDY    66  60  81 NW6       29.96R
HUNTER AAF     PTCLDY    68  64  88 NW7       29.93R
FORT STEWART   CLEAR     63  59  87 CALM      29.94R
STATESBORO     PTCLDY    60  57  91 CALM      29.98R
SYLVANIA       NOT AVBL
CLAXTON        FAIR      59  59 100 SW3       29.99R

...CSRA...CENTRAL AND FAR SOUTHEAST GEORGIA...

CITY           SKY/WX    TMP DP  RH WIND       PRES   REMARKS
THOMSON        CLEAR     58  52  83 CALM      30.04R
AUGUSTA-BUSH   PTCLDY    57  52  83 CALM      29.97R
AUGUSTA-DANIEL PTCLDY    64  47  53 W5        29.98R
SWAINSBORO     FAIR      57  52  82 CALM      30.01R
VIDALIA        PTCLDY    63  55  77 NW5       29.99S
EASTMAN        FAIR      54  54  98 CALM      30.04R
HAZLEHURST     FAIR      62  55  76 CALM      29.99R
ALMA           CLEAR     62  55  77 NW6       29.98S
WAYCROSS       CLEAR     64  61  88 CALM      29.99R
JESUP          FAIR      61  61 100 NW5       29.99R
BAXLEY         FAIR      63  57  82 CALM      29.99R
BRUNSWICK      MOCLDY    70  64  83 CALM      29.98R
SAINT SIMONS   CLEAR     71  62  73 VRB3      29.96R

$$

SCZ027-028-034-036>038-045-046-048>050-GAZ119-141-301100-
...LAKE AND SUPPLEMENTAL COASTAL OBSERVATIONS...

STATION/POSITION TIME  TEMP    WIND        PRES    WAVE   SWELL
                       AIR SEA DIR/SP/G            HT/PER HT/PER/DIR
                 (UTC) (F)     (DEG/KT/KT) (MB)    (FT/S) (FT/S/D)
WINYAH BAY       0945   75     210/  6     1013.0S
LAKE MURRAY      0950   66     290/  4/  6 1014.2R
ACE BASIN NERRS  0945   70        CALM     1014.0S
FORT PULASKI     1000   70 81  300/ 10/ 12 1014.8
SAPELO ISLAND    1000   70     330/  5     1015.0

$$

ANZ835-935-AMZ111-154-330-350-352-354-370-450-454-472-301100-
...C-MAN AND BUOY OBSERVATIONS...

STATION/POSITION TIME  TEMP    WIND        PRES    WAVE   SWELL
                       AIR SEA DIR/SP/G            HT/PER HT/PER/DIR
                 (UTC) (F)     (DEG/KT/KT) (MB)    (FT/S) (FT/S/D)
BUOY 41004       0950   78 82  230/ 12/ 17 1013.5R   4/ 5   2/120/ 9
BUOY 41008       0950   77 82  270/  8/ 10 1014.0R   3/ 4   3/170/ 4
FOLLY BEACH CMAN 1000   76     310/  3/  3 1014.0R
CAPERS NEARSHORE 1008   80 81  230/  4/  6 1013.6R
FRIPP NEARSHORE  0908   77 81  280/ 10/ 14 1013.2F


STATION/POSITION TIME  TEMP    WIND        PRES    WAVE   SWELL
                       AIR SEA DIR/SP/G            HT/PER HT/PER/DIR
                 (UTC) (F)     (DEG/KT/KT) (MB)    (FT/S) (FT/S/D)
5E ST. MARYS GA  1001      82                N/A     2/ 4
FRYING PAN BUOY  1010   81 82  170/ 12/ 14 1015.0
BUOY 41025       0950   79 76  190/  4/  4 1016.4R   4/ 8   3/ 30/ 8
CAPE LOOKOUT NC  1000   78     170/ 13/ 15 1015.9R
BUOY 41002       0950   81 83  200/ 14/ 16 1017.2S   4/ 5   2/ 60/ 8
BUOY 41010       NOT AVBL
ST AUGUSTINE FL  1000   73 82  250/  4/  5 1015.7R


$$



USA.gov is the U.S. government's official web portal to all federal, state and local government web resources and services.